Погода в Алотау

Папуа-Новая Гвинея     10°18′21″S   150°26′53″E
темп.,
°C
ветер,
м/с
пор.,
м/с
влажн.,
%
обл.,
%
осадки,
мм/ч
давл.,
гПа
погр.,
м
4 марта, чт
чт401:00+26сз61087100 1.8 1004695
04:00+26сз61185100 4.3 1003993
07:00+26сз6983100 1.6 1004694
10:00+28сз61078100 2.8 10051015
13:00+29сз81269100 0.4 10031248
16:00+27сз7985100 2.1 1002923
19:00+26зсз61189100 3.3 1004644
22:00+26сз61285100 4.7 1006935
5 марта, пт
пт501:00+26сз61086100 1.3 1004709
04:00+25з3687100 2.9 1003382
07:00+24ююз3483100 0.4 1006109
10:00+30зсз1458100 0.5 1007779
13:00+30ссз2360100 0.0 1005995
16:00+28зюз2480100 0.9 1004546
19:00+25юз3687100 0.3 1006322
22:00+25зюз3589100 1.4 1008120
6 марта, сб
сб601:00+25зюз2387100 2.6 1006115
04:00+24юз2388100 3.0 1006125
07:00+24ююз2385100 0.0 1007129
10:00+30юз375799 0.0 1009992
13:00+31св2557100 0.0 10061250
16:00+29ююв047199 0.4 1005979
19:00+26ююз2482100 0.4 1008371
22:00+25ююз2382100 0.6 1010168
7 марта, вс
вс701:00+24юз348668 0.0 1008158
04:00+24ююз348679 0.0 1007218
07:00+25ююз358536 0.0 1009193
10:00+29зюз245653 0.0 10111149
13:00+28ссв3266100 0.1 1009692
16:00+27всв2382100 0.5 1007445
19:00+25ююв1185100 0.3 1009251
22:00+24ю2288100 0.5 1011142
8 марта, пн
пн801:00+24ю1187100 0.1 1009106
04:00+24ю1185100 0.8 1009125
07:00+25ю1184100 0.3 1011114
10:00+30св116193 0.3 1011857
13:00+28ссв127790 0.9 1009593
16:00+27св128190 2.9 1008634
19:00+25юв1184100 0.9 1010321
22:00+24ю1186100 1.1 1011179